Time,TemperatureF,DewpointF,PressureIn,WindDirection,WindDirectionDegrees,WindSpeedMPH,WindSpeedGustMPH,Humidity,HourlyPrecipIn,Conditions,Clouds,dailyrainin,SoftwareType,DateUTC
2013-07-02 00:00:00,64.8,59.9,30.01,NE,36,0.0,4.0,84,0.00,,SKC,0.00,VWS V14.01,2013-07-02 05:00:00,
2013-07-02 00:03:00,64.8,59.9,30.00,NE,36,0.0,0.0,84,0.00,,SKC,0.00,VWS V14.01,2013-07-02 05:03:00,
2013-07-02 00:08:00,64.7,59.8,30.00,NE,38,0.0,4.0,84,0.00,,SKC,0.00,VWS V14.01,2013-07-02 05:08:00,
2013-07-02 00:13:00,64.6,59.7,30.00,NE,38,0.0,4.0,84,0.00,,SKC,0.00,VWS V14.01,2013-07-02 05:13:00,
2013-07-02 00:18:00,64.5,59.6,30.00,NE,37,0.0,4.0,84,0.00,,SKC,0.00,VWS V14.01,2013-07-02 05:18:00,
2013-07-02 00:23:00,64.3,59.4,30.01,NE,37,0.0,4.0,84,0.00,,SKC,0.00,VWS V14.01,2013-07-02 05:23:00,
2013-07-02 00:28:00,64.2,59.3,30.01,NE,37,1.0,4.0,84,0.00,,SKC,0.00,VWS V14.01,2013-07-02 05:28:00,
2013-07-02 00:30:00,65.3,59.7,30.01,NE,36,0.0,3.0,82,0.00,,SKC,0.00,VWS V14.01,2013-07-02 05:30:00,
2013-07-02 00:33:00,64.0,59.1,30.01,NE,37,0.0,0.0,84,0.00,,SKC,0.00,VWS V14.01,2013-07-02 05:33:00,
2013-07-02 00:38:00,63.7,58.8,30.01,NE,37,0.0,5.0,84,0.00,,SKC,0.00,VWS V14.01,2013-07-02 05:38:00,
2013-07-02 00:44:00,63.5,58.6,30.01,NE,37,0.0,5.0,84,0.00,,SKC,0.00,VWS V14.01,2013-07-02 05:44:00,
2013-07-02 00:49:00,63.4,58.5,30.01,NE,37,0.0,5.0,84,0.00,,SKC,0.00,VWS V14.01,2013-07-02 05:49:00,
2013-07-02 00:54:00,63.2,58.3,30.01,NE,37,0.0,5.0,84,0.00,,SKC,0.00,VWS V14.01,2013-07-02 05:54:00,
2013-07-02 00:59:00,63.0,58.1,30.01,NE,37,0.0,5.0,84,0.00,,SKC,0.00,VWS V14.01,2013-07-02 05:59:00,
2013-07-02 01:00:00,64.8,59.9,30.01,NE,36,0.0,4.0,84,0.00,,SKC,0.00,VWS V14.01,2013-07-02 06:00:00,
2013-07-02 01:04:00,62.8,57.9,30.01,NE,37,0.0,2.0,84,0.00,,SKC,0.00,VWS V14.01,2013-07-02 06:04:00,
2013-07-02 01:09:00,62.5,57.6,30.01,NE,37,0.0,2.0,84,0.00,,SKC,0.00,VWS V14.01,2013-07-02 06:09:00,
2013-07-02 01:14:00,62.3,57.4,30.01,NE,37,0.0,2.0,84,0.00,,SKC,0.00,VWS V14.01,2013-07-02 06:14:00,
2013-07-02 01:19:00,62.2,57.3,30.01,NE,37,0.0,2.0,84,0.00,,SKC,0.00,VWS V14.01,2013-07-02 06:19:00,
2013-07-02 01:24:00,62.0,57.5,30.01,NE,37,0.0,2.0,85,0.00,,SKC,0.00,VWS V14.01,2013-07-02 06:24:00,
2013-07-02 01:29:00,61.8,57.2,30.01,NE,37,0.0,2.0,85,0.00,,SKC,0.00,VWS V14.01,2013-07-02 06:29:00,
2013-07-02 01:30:00,64.1,59.2,30.01,NE,37,0.0,4.0,84,0.00,,SKC,0.00,VWS V14.01,2013-07-02 06:30:00,
2013-07-02 01:34:00,61.6,57.0,30.01,NE,37,0.0,0.0,85,0.00,,SKC,0.00,VWS V14.01,2013-07-02 06:34:00,
2013-07-02 01:39:00,61.2,56.3,30.01,NE,37,0.0,0.0,84,0.00,,SKC,0.00,VWS V14.01,2013-07-02 06:39:00,
2013-07-02 01:44:00,60.7,55.8,30.01,NE,37,0.0,0.0,84,0.00,,SKC,0.00,VWS V14.01,2013-07-02 06:44:00,
2013-07-02 01:49:00,60.2,55.7,30.01,NE,37,0.0,0.0,85,0.00,,SKC,0.00,VWS V14.01,2013-07-02 06:49:00,
2013-07-02 01:54:00,59.9,55.7,30.01,NE,37,0.0,0.0,86,0.00,,SKC,0.00,VWS V14.01,2013-07-02 06:54:00,
2013-07-02 01:59:00,59.6,55.4,30.01,NE,37,0.0,0.0,86,0.00,,SKC,0.00,VWS V14.01,2013-07-02 06:59:00,
2013-07-02 02:00:00,62.9,58.0,30.01,NE,37,0.0,5.0,84,0.00,,SKC,0.00,VWS V14.01,2013-07-02 07:00:00,
2013-07-02 02:04:00,59.2,55.3,30.01,NE,37,0.0,0.0,87,0.00,,SKC,0.00,VWS V14.01,2013-07-02 07:04:00,
2013-07-02 02:09:00,59.0,55.1,30.01,NE,37,0.0,1.0,87,0.00,,SKC,0.00,VWS V14.01,2013-07-02 07:09:00,
2013-07-02 02:14:00,58.7,54.8,30.02,NE,37,0.0,1.0,87,0.00,,SKC,0.00,VWS V14.01,2013-07-02 07:14:00,
2013-07-02 02:19:00,58.6,54.8,30.01,NE,37,0.0,1.0,87,0.00,,SKC,0.00,VWS V14.01,2013-07-02 07:19:00,
2013-07-02 02:24:00,58.4,54.5,30.01,NE,37,0.0,1.0,87,0.00,,SKC,0.00,VWS V14.01,2013-07-02 07:24:00,
2013-07-02 02:29:00,58.2,54.4,30.02,NE,37,0.0,1.0,87,0.00,,SKC,0.00,VWS V14.01,2013-07-02 07:29:00,
2013-07-02 02:30:00,61.8,57.2,30.01,NE,37,0.0,2.0,85,0.00,,SKC,0.00,VWS V14.01,2013-07-02 07:30:00,
2013-07-02 02:34:00,58.0,54.2,30.01,NE,37,0.0,1.0,87,0.00,,SKC,0.00,VWS V14.01,2013-07-02 07:34:00,
2013-07-02 02:39:00,57.8,54.0,30.01,NE,37,0.0,1.0,87,0.00,,SKC,0.00,VWS V14.01,2013-07-02 07:39:00,
2013-07-02 02:44:00,57.7,53.9,30.01,NE,37,0.0,1.0,87,0.00,,SKC,0.00,VWS V14.01,2013-07-02 07:44:00,
2013-07-02 02:49:00,57.6,53.5,30.02,NE,37,0.0,1.0,86,0.00,,SKC,0.00,VWS V14.01,2013-07-02 07:49:00,
2013-07-02 02:54:00,57.5,53.7,30.02,NE,37,0.0,1.0,87,0.00,,SKC,0.00,VWS V14.01,2013-07-02 07:54:00,
2013-07-02 02:59:00,57.3,53.5,30.02,NE,37,0.0,1.0,87,0.00,,SKC,0.00,VWS V14.01,2013-07-02 07:59:00,
2013-07-02 03:00:00,59.5,55.3,30.01,NE,37,0.0,0.0,86,0.00,,SKC,0.00,VWS V14.01,2013-07-02 08:00:00,
2013-07-02 03:04:00,57.2,53.4,30.02,NE,37,0.0,0.0,87,0.00,,SKC,0.00,VWS V14.01,2013-07-02 08:04:00,
2013-07-02 03:09:00,57.1,53.3,30.02,NE,37,0.0,0.0,87,0.00,,SKC,0.00,VWS V14.01,2013-07-02 08:09:00,
2013-07-02 03:14:00,57.0,53.2,30.02,NE,37,0.0,1.0,87,0.00,,SKC,0.00,VWS V14.01,2013-07-02 08:14:00,
2013-07-02 03:19:00,57.0,53.2,30.02,NE,37,0.0,1.0,87,0.00,,SKC,0.00,VWS V14.01,2013-07-02 08:19:00,
2013-07-02 03:24:00,57.0,53.2,30.02,NE,37,0.0,1.0,87,0.00,,SKC,0.00,VWS V14.01,2013-07-02 08:24:00,
2013-07-02 03:30:00,57.0,53.2,30.02,NE,37,0.0,1.0,87,0.00,,SKC,0.00,VWS V14.01,2013-07-02 08:30:00,
2013-07-02 03:35:00,56.7,52.6,30.02,NE,37,0.0,0.0,86,0.00,,SKC,0.00,VWS V14.01,2013-07-02 08:35:00,
2013-07-02 03:40:00,56.4,52.0,30.02,NE,37,0.0,0.0,85,0.00,,SKC,0.00,VWS V14.01,2013-07-02 08:40:00,
2013-07-02 03:45:00,56.1,51.7,30.02,NE,37,0.0,0.0,85,0.00,,SKC,0.00,VWS V14.01,2013-07-02 08:45:00,
2013-07-02 03:50:00,56.0,51.9,30.02,NE,37,0.0,0.0,86,0.00,,SKC,0.00,VWS V14.01,2013-07-02 08:50:00,
2013-07-02 03:55:00,55.9,52.1,30.02,NE,37,0.0,0.0,87,0.00,,SKC,0.00,VWS V14.01,2013-07-02 08:55:00,
2013-07-02 04:00:00,55.8,52.0,30.02,NE,37,0.0,0.0,87,0.00,,SKC,0.00,VWS V14.01,2013-07-02 09:00:00,
2013-07-02 04:05:00,55.7,52.2,30.02,NE,37,0.0,0.0,88,0.00,,SKC,0.00,VWS V14.01,2013-07-02 09:05:00,
2013-07-02 04:10:00,55.5,51.7,30.02,NE,37,0.0,0.0,87,0.00,,SKC,0.00,VWS V14.01,2013-07-02 09:10:00,
2013-07-02 04:15:00,55.3,51.5,30.02,NE,37,0.0,0.0,87,0.00,,SKC,0.00,VWS V14.01,2013-07-02 09:15:00,
2013-07-02 04:20:00,54.9,51.1,30.02,NE,37,0.0,0.0,87,0.00,,SKC,0.00,VWS V14.01,2013-07-02 09:20:00,
2013-07-02 04:25:00,54.5,50.7,30.02,NE,37,0.0,1.0,87,0.00,,SKC,0.00,VWS V14.01,2013-07-02 09:25:00,
2013-07-02 04:30:00,54.2,50.4,30.02,NE,37,0.0,1.0,87,0.00,,SKC,0.00,VWS V14.01,2013-07-02 09:30:00,
2013-07-02 04:35:00,54.1,50.6,30.02,NE,37,0.0,1.0,88,0.00,,SKC,0.00,VWS V14.01,2013-07-02 09:35:00,
2013-07-02 04:40:00,54.0,50.2,30.02,NE,37,0.0,1.0,87,0.00,,SKC,0.00,VWS V14.01,2013-07-02 09:40:00,
2013-07-02 04:45:00,53.9,50.7,30.03,NE,37,0.0,1.0,89,0.00,,SKC,0.00,VWS V14.01,2013-07-02 09:45:00,
2013-07-02 04:50:00,53.8,50.6,30.02,NE,37,0.0,1.0,89,0.00,,SKC,0.00,VWS V14.01,2013-07-02 09:50:00,
2013-07-02 04:55:00,53.7,50.2,30.02,NE,37,0.0,1.0,88,0.00,,SKC,0.00,VWS V14.01,2013-07-02 09:55:00,
2013-07-02 05:00:00,53.7,50.5,30.02,NE,37,0.0,1.0,89,0.00,,SKC,0.00,VWS V14.01,2013-07-02 10:00:00,
2013-07-02 05:05:00,53.7,50.8,30.03,NE,37,0.0,0.0,90,0.00,,SKC,0.00,VWS V14.01,2013-07-02 10:05:00,
2013-07-02 05:10:00,53.5,50.6,30.02,NE,37,0.0,0.0,90,0.00,,SKC,0.00,VWS V14.01,2013-07-02 10:10:00,
2013-07-02 05:15:00,53.4,50.5,30.02,NE,37,0.0,0.0,90,0.00,,SKC,0.00,VWS V14.01,2013-07-02 10:15:00,
2013-07-02 05:20:00,53.3,50.5,30.02,NE,37,0.0,0.0,90,0.00,,SKC,0.00,VWS V14.01,2013-07-02 10:20:00,
2013-07-02 05:25:00,53.3,50.5,30.02,NE,37,0.0,0.0,90,0.00,,SKC,0.00,VWS V14.01,2013-07-02 10:25:00,
2013-07-02 05:30:00,53.2,50.3,30.02,NE,37,0.0,0.0,90,0.00,,SKC,0.00,VWS V14.01,2013-07-02 10:30:00,
2013-07-02 05:35:00,53.2,50.3,30.03,NE,37,0.0,0.0,90,0.00,,SKC,0.00,VWS V14.01,2013-07-02 10:35:00,
2013-07-02 05:40:00,53.2,50.0,30.03,NE,37,0.0,0.0,89,0.00,,SKC,0.00,VWS V14.01,2013-07-02 10:40:00,
2013-07-02 05:45:00,53.3,50.2,30.03,NE,37,0.0,0.0,89,0.00,,SKC,0.00,VWS V14.01,2013-07-02 10:45:00,
2013-07-02 05:50:00,53.4,50.2,30.03,NE,37,0.0,0.0,89,0.00,,SKC,0.00,VWS V14.01,2013-07-02 10:50:00,
2013-07-02 05:55:00,53.6,50.1,30.03,NE,37,0.0,0.0,88,0.00,,SKC,0.00,VWS V14.01,2013-07-02 10:55:00,
2013-07-02 06:00:00,53.7,50.5,30.02,NE,37,0.0,1.0,89,0.00,,SKC,0.00,VWS V14.01,2013-07-02 11:00:00,
2013-07-02 06:01:00,53.8,50.3,30.03,NE,37,0.0,0.0,88,0.00,,SKC,0.00,VWS V14.01,2013-07-02 11:01:00,
2013-07-02 06:06:00,53.8,49.7,30.03,NE,37,0.0,0.0,86,0.00,,SKC,0.00,VWS V14.01,2013-07-02 11:06:00,
2013-07-02 06:11:00,54.0,49.9,30.03,NE,37,0.0,0.0,86,0.00,,SKC,0.00,VWS V14.01,2013-07-02 11:11:00,
2013-07-02 06:16:00,54.1,49.4,30.03,NE,37,0.0,0.0,84,0.00,,SKC,0.00,VWS V14.01,2013-07-02 11:16:00,
2013-07-02 06:21:00,54.2,49.2,30.03,NE,37,0.0,0.0,83,0.00,,SKC,0.00,VWS V14.01,2013-07-02 11:21:00,
2013-07-02 06:26:00,54.3,49.6,30.03,NE,37,0.0,0.0,84,0.00,,SKC,0.00,VWS V14.01,2013-07-02 11:26:00,
2013-07-02 06:30:00,53.2,50.3,30.02,NE,37,0.0,1.0,90,0.00,,SKC,0.00,VWS V14.01,2013-07-02 11:30:00,
2013-07-02 06:31:00,54.4,49.3,30.03,NE,37,0.0,0.0,83,0.00,,SKC,0.00,VWS V14.01,2013-07-02 11:31:00,
2013-07-02 06:36:00,54.7,49.3,30.03,NE,37,0.0,0.0,82,0.00,,SKC,0.00,VWS V14.01,2013-07-02 11:36:00,
2013-07-02 06:41:00,54.9,49.8,30.03,NE,37,0.0,0.0,83,0.00,,SKC,0.00,VWS V14.01,2013-07-02 11:41:00,
2013-07-02 06:46:00,55.2,49.8,30.03,NE,37,0.0,1.0,82,0.00,,SKC,0.00,VWS V14.01,2013-07-02 11:46:00,
2013-07-02 06:51:00,55.6,50.2,30.03,NE,37,0.0,1.0,82,0.00,,SKC,0.00,VWS V14.01,2013-07-02 11:51:00,
2013-07-02 06:56:00,56.0,50.6,30.03,NE,37,0.0,1.0,82,0.00,,SKC,0.00,VWS V14.01,2013-07-02 11:56:00,
2013-07-02 07:00:00,53.7,50.2,30.03,NE,37,0.0,0.0,88,0.00,,SKC,0.00,VWS V14.01,2013-07-02 12:00:00,
2013-07-02 07:01:00,56.4,50.7,30.03,NE,37,0.0,1.0,81,0.00,,SKC,0.00,VWS V14.01,2013-07-02 12:01:00,
2013-07-02 07:06:00,56.9,51.1,30.03,NE,37,0.0,1.0,81,0.00,,SKC,0.00,VWS V14.01,2013-07-02 12:06:00,
2013-07-02 07:11:00,57.3,51.5,30.03,NE,37,0.0,1.0,81,0.00,,SKC,0.00,VWS V14.01,2013-07-02 12:11:00,
2013-07-02 07:16:00,57.8,51.3,30.03,NE,37,0.0,1.0,79,0.00,,SKC,0.00,VWS V14.01,2013-07-02 12:16:00,
2013-07-02 07:21:00,58.3,51.8,30.02,NE,37,1.0,2.0,79,0.00,,SKC,0.00,VWS V14.01,2013-07-02 12:21:00,
2013-07-02 07:26:00,58.7,51.9,30.02,NE,37,0.0,4.0,78,0.00,,SKC,0.00,VWS V14.01,2013-07-02 12:26:00,
2013-07-02 07:30:00,54.4,49.3,30.03,NE,37,0.0,1.0,83,0.00,,SKC,0.00,VWS V14.01,2013-07-02 12:30:00,
2013-07-02 07:31:00,59.0,52.2,30.02,NE,37,0.0,0.0,78,0.00,,SKC,0.00,VWS V14.01,2013-07-02 12:31:00,
2013-07-02 07:36:00,59.3,51.8,30.02,NE,36,0.0,2.0,76,0.00,,SKC,0.00,VWS V14.01,2013-07-02 12:36:00,
2013-07-02 07:41:00,59.6,52.4,30.02,NE,36,0.0,2.0,77,0.00,,SKC,0.00,VWS V14.01,2013-07-02 12:41:00,
2013-07-02 07:46:00,59.9,52.3,30.02,NE,36,0.0,3.0,76,0.00,,SKC,0.00,VWS V14.01,2013-07-02 12:46:00,
2013-07-02 07:51:00,60.3,52.3,30.02,NE,36,0.0,3.0,75,0.00,,SKC,0.00,VWS V14.01,2013-07-02 12:51:00,
2013-07-02 07:56:00,60.8,52.5,30.02,NE,36,0.0,3.0,74,0.00,,SKC,0.00,VWS V14.01,2013-07-02 12:56:00,
2013-07-02 08:00:00,56.4,51.0,30.03,NE,37,0.0,2.0,82,0.00,,SKC,0.00,VWS V14.01,2013-07-02 13:00:00,
2013-07-02 08:01:00,61.4,53.8,30.02,NE,36,0.0,2.0,76,0.00,,SKC,0.00,VWS V14.01,2013-07-02 13:01:00,
2013-07-02 08:06:00,61.8,53.1,30.02,NE,36,0.0,2.0,73,0.00,,SKC,0.00,VWS V14.01,2013-07-02 13:06:00,
2013-07-02 08:11:00,62.3,53.5,30.02,NE,36,0.0,2.0,73,0.00,,SKC,0.00,VWS V14.01,2013-07-02 13:11:00,
2013-07-02 08:16:00,62.6,54.2,30.02,NE,36,0.0,2.0,74,0.00,,SKC,0.00,VWS V14.01,2013-07-02 13:16:00,
2013-07-02 08:22:00,62.9,54.5,30.02,NE,36,0.0,2.0,74,0.00,,SKC,0.00,VWS V14.01,2013-07-02 13:22:00,
2013-07-02 08:27:00,63.2,54.0,30.02,NE,36,0.0,2.0,72,0.00,,SKC,0.00,VWS V14.01,2013-07-02 13:27:00,
2013-07-02 08:30:00,59.0,52.2,30.02,NE,37,0.0,4.0,78,0.00,,SKC,0.00,VWS V14.01,2013-07-02 13:30:00,
2013-07-02 08:32:00,63.5,54.3,30.02,NE,36,0.0,0.0,72,0.00,,SKC,0.00,VWS V14.01,2013-07-02 13:32:00,
2013-07-02 08:37:00,63.7,54.5,30.02,NE,36,0.0,2.0,72,0.00,,SKC,0.00,VWS V14.01,2013-07-02 13:37:00,
2013-07-02 08:42:00,63.8,54.6,30.02,NE,36,0.0,2.0,72,0.00,,SKC,0.00,VWS V14.01,2013-07-02 13:42:00,
2013-07-02 08:47:00,63.8,54.2,30.02,NE,36,0.0,2.0,71,0.00,,SKC,0.00,VWS V14.01,2013-07-02 13:47:00,
2013-07-02 08:52:00,63.9,54.7,30.02,NE,36,0.0,2.0,72,0.00,,SKC,0.00,VWS V14.01,2013-07-02 13:52:00,
2013-07-02 08:57:00,64.1,55.3,30.02,NE,36,0.0,2.0,73,0.00,,SKC,0.00,VWS V14.01,2013-07-02 13:57:00,
2013-07-02 09:00:00,61.3,53.7,30.02,NE,36,0.0,3.0,76,0.00,,SKC,0.00,VWS V14.01,2013-07-02 14:00:00,
2013-07-02 09:02:00,64.2,55.4,30.02,NE,36,0.0,1.0,73,0.00,,SKC,0.00,VWS V14.01,2013-07-02 14:02:00,
2013-07-02 09:07:00,64.4,55.2,30.02,NE,37,3.0,3.0,72,0.00,,SKC,0.00,VWS V14.01,2013-07-02 14:07:00,
2013-07-02 09:12:00,64.3,55.5,30.02,NE,37,0.0,4.0,73,0.00,,SKC,0.00,VWS V14.01,2013-07-02 14:12:00,
2013-07-02 09:17:00,64.3,55.1,30.02,NE,37,0.0,4.0,72,0.00,,SKC,0.00,VWS V14.01,2013-07-02 14:17:00,
2013-07-02 09:22:00,64.4,55.9,30.02,NE,37,0.0,4.0,74,0.00,,SKC,0.00,VWS V14.01,2013-07-02 14:22:00,
2013-07-02 09:27:00,64.5,56.0,30.02,NE,37,0.0,4.0,74,0.00,,SKC,0.00,VWS V14.01,2013-07-02 14:27:00,
2013-07-02 09:30:00,63.4,54.2,30.02,NE,36,0.0,2.0,72,0.00,,SKC,0.00,VWS V14.01,2013-07-02 14:30:00,
2013-07-02 09:32:00,64.8,56.3,30.01,NE,37,1.0,1.0,74,0.00,,SKC,0.00,VWS V14.01,2013-07-02 14:32:00,
2013-07-02 09:37:00,65.2,56.3,30.01,NE,37,0.0,2.0,73,0.00,,SKC,0.00,VWS V14.01,2013-07-02 14:37:00,
2013-07-02 09:42:00,65.6,56.3,30.01,NE,37,0.0,2.0,72,0.00,,SKC,0.00,VWS V14.01,2013-07-02 14:42:00,
2013-07-02 09:47:00,66.0,56.7,30.01,NE,37,0.0,2.0,72,0.00,,SKC,0.00,VWS V14.01,2013-07-02 14:47:00,
2013-07-02 09:52:00,66.3,56.2,30.01,NE,37,0.0,2.0,70,0.00,,SKC,0.00,VWS V14.01,2013-07-02 14:52:00,
2013-07-02 09:57:00,66.4,55.5,30.01,NE,38,0.0,4.0,68,0.00,,SKC,0.00,VWS V14.01,2013-07-02 14:57:00,
2013-07-02 10:00:00,64.2,55.4,30.02,NE,36,0.0,2.0,73,0.00,,SKC,0.00,VWS V14.01,2013-07-02 15:00:00,
2013-07-02 10:02:00,66.6,56.5,30.01,NE,38,2.0,3.0,70,0.00,,SKC,0.00,VWS V14.01,2013-07-02 15:02:00,
2013-07-02 10:07:00,66.8,57.1,30.01,NE,39,1.0,5.0,71,0.00,,SKC,0.00,VWS V14.01,2013-07-02 15:07:00,
2013-07-02 10:12:00,67.2,56.3,30.01,NE,39,0.0,5.0,68,0.00,,SKC,0.00,VWS V14.01,2013-07-02 15:12:00,
2013-07-02 10:17:00,67.6,55.8,30.01,NE,39,0.0,5.0,66,0.00,,SKC,0.00,VWS V14.01,2013-07-02 15:17:00,
2013-07-02 10:22:00,68.1,55.0,30.01,NE,39,0.0,5.0,63,0.00,,SKC,0.00,VWS V14.01,2013-07-02 15:22:00,
2013-07-02 10:27:00,68.5,56.3,30.01,NE,39,0.0,5.0,65,0.00,,SKC,0.00,VWS V14.01,2013-07-02 15:27:00,
2013-07-02 10:30:00,64.7,56.2,30.02,NE,37,1.0,4.0,74,0.00,,SKC,0.00,VWS V14.01,2013-07-02 15:30:00,
2013-07-02 10:32:00,68.9,54.5,30.01,NE,39,0.0,1.0,60,0.00,,SKC,0.00,VWS V14.01,2013-07-02 15:32:00,
2013-07-02 10:37:00,69.3,55.3,30.01,NE,39,1.0,1.0,61,0.00,,SKC,0.00,VWS V14.01,2013-07-02 15:37:00,
2013-07-02 10:42:00,69.6,56.0,30.00,NE,39,0.0,1.0,62,0.00,,SKC,0.00,VWS V14.01,2013-07-02 15:42:00,
2013-07-02 10:48:00,70.1,53.7,30.00,NE,39,0.0,2.0,56,0.00,,SKC,0.00,VWS V14.01,2013-07-02 15:48:00,
2013-07-02 10:53:00,70.6,55.1,30.00,NE,39,1.0,3.0,58,0.00,,SKC,0.00,VWS V14.01,2013-07-02 15:53:00,
2013-07-02 10:58:00,71.0,56.4,30.00,NE,46,0.0,4.0,60,0.00,,SKC,0.00,VWS V14.01,2013-07-02 15:58:00,
2013-07-02 11:00:00,66.5,56.0,30.01,NE,37,1.0,4.0,69,0.00,,SKC,0.00,VWS V14.01,2013-07-02 16:00:00,
2013-07-02 11:03:00,71.6,55.6,30.00,NE,46,0.0,5.0,57,0.00,,SKC,0.00,VWS V14.01,2013-07-02 16:03:00,
2013-07-02 11:08:00,72.3,56.7,30.00,NE,46,0.0,5.0,58,0.00,,SKC,0.00,VWS V14.01,2013-07-02 16:08:00,
2013-07-02 11:13:00,72.8,56.2,29.99,NE,46,0.0,5.0,56,0.00,,SKC,0.00,VWS V14.01,2013-07-02 16:13:00,
2013-07-02 11:18:00,73.1,56.5,29.99,NE,47,1.0,5.0,56,0.00,,SKC,0.00,VWS V14.01,2013-07-02 16:18:00,
2013-07-02 11:23:00,73.3,55.7,29.99,NE,47,0.0,5.0,54,0.00,,SKC,0.00,VWS V14.01,2013-07-02 16:23:00,
2013-07-02 11:28:00,73.7,54.5,30.00,NE,47,0.0,5.0,51,0.00,,SKC,0.00,VWS V14.01,2013-07-02 16:28:00,
2013-07-02 11:30:00,68.8,55.3,30.01,NE,39,0.0,5.0,62,0.00,,SKC,0.00,VWS V14.01,2013-07-02 16:30:00,
2013-07-02 11:33:00,74.2,54.4,30.00,NE,46,0.0,1.0,50,0.00,,SKC,0.00,VWS V14.01,2013-07-02 16:33:00,
2013-07-02 11:38:00,74.6,56.4,29.99,NE,46,0.0,1.0,53,0.00,,SKC,0.00,VWS V14.01,2013-07-02 16:38:00,
2013-07-02 11:43:00,75.1,55.8,30.00,NE,46,0.0,2.0,51,0.00,,SKC,0.00,VWS V14.01,2013-07-02 16:43:00,
2013-07-02 11:48:00,75.4,55.5,29.99,NE,46,0.0,2.0,50,0.00,,SKC,0.00,VWS V14.01,2013-07-02 16:48:00,
2013-07-02 11:53:00,75.7,56.8,29.99,NE,46,0.0,2.0,52,0.00,,SKC,0.00,VWS V14.01,2013-07-02 16:53:00,
2013-07-02 11:58:00,76.2,56.8,29.99,NE,46,0.0,2.0,51,0.00,,SKC,0.00,VWS V14.01,2013-07-02 16:58:00,
2013-07-02 12:00:00,71.3,56.7,30.00,NE,46,0.0,4.0,60,0.00,,SKC,0.00,VWS V14.01,2013-07-02 17:00:00,
2013-07-02 12:03:00,76.9,56.3,29.99,NE,46,0.0,1.0,49,0.00,,SKC,0.00,VWS V14.01,2013-07-02 17:03:00,
2013-07-02 12:08:00,77.3,56.7,29.99,NE,46,0.0,2.0,49,0.00,,SKC,0.00,VWS V14.01,2013-07-02 17:08:00,
2013-07-02 12:13:00,77.7,55.9,29.99,NE,46,0.0,2.0,47,0.00,,SKC,0.00,VWS V14.01,2013-07-02 17:13:00,
2013-07-02 12:18:00,78.2,56.3,29.99,NE,46,2.0,2.0,47,0.00,,SKC,0.00,VWS V14.01,2013-07-02 17:18:00,
2013-07-02 12:23:00,78.3,57.0,29.99,NE,46,0.0,2.0,48,0.00,,SKC,0.00,VWS V14.01,2013-07-02 17:23:00,
2013-07-02 12:28:00,78.7,56.8,29.99,NE,46,0.0,2.0,47,0.00,,SKC,0.00,VWS V14.01,2013-07-02 17:28:00,
2013-07-02 12:30:00,73.9,55.7,30.00,NE,46,0.0,5.0,53,0.00,,SKC,0.00,VWS V14.01,2013-07-02 17:30:00,
2013-07-02 12:34:00,79.1,57.2,29.99,NE,46,0.0,4.0,47,0.00,,SKC,0.00,VWS V14.01,2013-07-02 17:34:00,
2013-07-02 12:39:00,79.6,56.4,29.99,NE,46,0.0,4.0,45,0.00,,SKC,0.00,VWS V14.01,2013-07-02 17:39:00,
2013-07-02 12:44:00,80.2,57.0,29.98,NE,46,0.0,4.0,45,0.00,,SKC,0.00,VWS V14.01,2013-07-02 17:44:00,
2013-07-02 12:49:00,80.6,56.7,29.98,NE,46,1.0,4.0,44,0.00,,SKC,0.00,VWS V14.01,2013-07-02 17:49:00,
2013-07-02 12:54:00,80.7,56.8,29.98,NE,49,0.0,5.0,44,0.00,,SKC,0.00,VWS V14.01,2013-07-02 17:54:00,
2013-07-02 12:59:00,80.8,59.3,29.98,NE,49,3.0,5.0,48,0.00,,SKC,0.00,VWS V14.01,2013-07-02 17:59:00,
2013-07-02 13:00:00,76.6,56.6,29.99,NE,46,0.0,2.0,50,0.00,,SKC,0.00,VWS V14.01,2013-07-02 18:00:00,
2013-07-02 13:04:00,80.6,56.1,29.98,NE,55,0.0,5.0,43,0.00,,SKC,0.00,VWS V14.01,2013-07-02 18:04:00,
2013-07-02 13:09:00,80.5,56.0,29.98,NE,55,1.0,5.0,43,0.00,,SKC,0.00,VWS V14.01,2013-07-02 18:09:00,
2013-07-02 13:14:00,80.9,58.2,29.98,NE,55,0.0,5.0,46,0.00,,SKC,0.00,VWS V14.01,2013-07-02 18:14:00,
2013-07-02 13:19:00,81.5,58.1,29.98,NE,55,0.0,5.0,45,0.00,,SKC,0.00,VWS V14.01,2013-07-02 18:19:00,
2013-07-02 13:24:00,82.1,59.3,29.97,NE,55,0.0,5.0,46,0.00,,SKC,0.00,VWS V14.01,2013-07-02 18:24:00,
2013-07-02 13:29:00,82.9,58.1,29.97,NE,55,0.0,5.0,43,0.00,,SKC,0.00,VWS V14.01,2013-07-02 18:29:00,
2013-07-02 13:30:00,78.7,54.3,29.99,NE,46,0.0,2.0,43,0.00,,SKC,0.00,VWS V14.01,2013-07-02 18:30:00,
2013-07-02 13:34:00,83.4,58.6,29.97,NE,54,0.0,4.0,43,0.00,,SKC,0.00,VWS V14.01,2013-07-02 18:34:00,
2013-07-02 13:39:00,84.1,57.2,29.97,NE,54,0.0,4.0,40,0.00,,SKC,0.00,VWS V14.01,2013-07-02 18:39:00,
2013-07-02 13:44:00,84.2,57.3,29.97,NE,54,2.0,4.0,40,0.00,,SKC,0.00,VWS V14.01,2013-07-02 18:44:00,
2013-07-02 13:49:00,83.5,56.7,29.97,NE,56,2.0,6.0,40,0.00,,SKC,0.00,VWS V14.01,2013-07-02 18:49:00,
2013-07-02 13:54:00,83.2,57.1,29.97,NE,56,0.0,6.0,41,0.00,,SKC,0.00,VWS V14.01,2013-07-02 18:54:00,
2013-07-02 13:59:00,83.3,58.5,29.97,NE,56,1.0,6.0,43,0.00,,SKC,0.00,VWS V14.01,2013-07-02 18:59:00,
2013-07-02 14:00:00,80.9,56.3,29.98,NE,55,5.0,6.0,43,0.00,,SKC,0.00,VWS V14.01,2013-07-02 19:00:00,
2013-07-02 14:04:00,83.7,56.8,29.97,NE,56,0.0,1.0,40,0.00,,SKC,0.00,VWS V14.01,2013-07-02 19:04:00,
2013-07-02 14:09:00,83.7,56.8,29.97,ENE,57,2.0,5.0,40,0.00,,SKC,0.00,VWS V14.01,2013-07-02 19:09:00,
2013-07-02 14:14:00,83.1,56.3,29.96,ENE,57,0.0,5.0,40,0.00,,SKC,0.00,VWS V14.01,2013-07-02 19:14:00,
2013-07-02 14:19:00,83.0,57.6,29.96,ENE,58,6.0,6.0,42,0.00,,SKC,0.00,VWS V14.01,2013-07-02 19:19:00,
2013-07-02 14:24:00,82.4,58.3,29.96,ENE,59,6.0,6.0,44,0.00,,SKC,0.00,VWS V14.01,2013-07-02 19:24:00,
2013-07-02 14:29:00,82.2,57.5,29.96,ENE,59,0.0,6.0,43,0.00,,SKC,0.00,VWS V14.01,2013-07-02 19:29:00,
2013-07-02 14:30:00,83.0,58.2,29.97,NE,55,0.0,5.0,43,0.00,,SKC,0.00,VWS V14.01,2013-07-02 19:30:00,
2013-07-02 14:34:00,82.6,60.3,29.96,ENE,59,0.0,4.0,47,0.00,,SKC,0.00,VWS V14.01,2013-07-02 19:34:00,
2013-07-02 14:39:00,83.1,58.3,29.96,ENE,59,1.0,4.0,43,0.00,,SKC,0.00,VWS V14.01,2013-07-02 19:39:00,
2013-07-02 14:44:00,83.2,57.8,29.96,ENE,60,1.0,5.0,42,0.00,,SKC,0.00,VWS V14.01,2013-07-02 19:44:00,
2013-07-02 14:49:00,82.9,57.5,29.95,ENE,60,0.0,5.0,42,0.00,,SKC,0.00,VWS V14.01,2013-07-02 19:49:00,
2013-07-02 14:54:00,82.7,56.6,29.95,ENE,60,4.0,5.0,41,0.00,,SKC,0.00,VWS V14.01,2013-07-02 19:54:00,
2013-07-02 15:00:00,82.1,59.3,29.95,ENE,60,3.0,5.0,46,0.00,,SKC,0.00,VWS V14.01,2013-07-02 20:00:00,
2013-07-02 15:05:00,81.8,59.0,29.95,ENE,59,0.0,0.0,46,0.00,,SKC,0.00,VWS V14.01,2013-07-02 20:05:00,
2013-07-02 15:10:00,81.7,59.5,29.95,NE,55,1.0,2.0,47,0.00,,SKC,0.00,VWS V14.01,2013-07-02 20:10:00,
2013-07-02 15:15:00,81.5,59.9,29.95,NE,55,0.0,2.0,48,0.00,,SKC,0.00,VWS V14.01,2013-07-02 20:15:00,
2013-07-02 15:20:00,81.2,59.1,29.95,NE,55,0.0,4.0,47,0.00,,SKC,0.00,VWS V14.01,2013-07-02 20:20:00,
2013-07-02 15:25:00,81.1,58.4,29.95,NE,55,0.0,4.0,46,0.00,,SKC,0.00,VWS V14.01,2013-07-02 20:25:00,
2013-07-02 15:30:00,81.3,59.8,29.95,NE,55,1.0,4.0,48,0.00,,SKC,0.00,VWS V14.01,2013-07-02 20:30:00,
2013-07-02 15:35:00,81.0,57.7,29.95,ENE,66,0.0,8.0,45,0.00,,SKC,0.00,VWS V14.01,2013-07-02 20:35:00,
2013-07-02 15:40:00,80.5,58.4,29.95,ENE,66,0.0,8.0,47,0.00,,SKC,0.00,VWS V14.01,2013-07-02 20:40:00,
2013-07-02 15:45:00,80.2,58.8,29.95,ENE,65,3.0,8.0,48,0.00,,SKC,0.00,VWS V14.01,2013-07-02 20:45:00,
2013-07-02 15:50:00,80.1,58.7,29.94,ENE,65,0.0,8.0,48,0.00,,SKC,0.00,VWS V14.01,2013-07-02 20:50:00,
2013-07-02 15:55:00,80.0,58.6,29.94,ENE,64,0.0,8.0,48,0.00,,SKC,0.00,VWS V14.01,2013-07-02 20:55:00,
2013-07-02 16:00:00,79.8,56.6,29.94,NE,54,0.0,8.0,45,0.00,,SKC,0.00,VWS V14.01,2013-07-02 21:00:00,
2013-07-02 16:05:00,79.8,59.0,29.94,NE,54,0.0,1.0,49,0.00,,SKC,0.00,VWS V14.01,2013-07-02 21:05:00,
2013-07-02 16:10:00,79.7,59.4,29.94,NE,54,1.0,4.0,50,0.00,,SKC,0.00,VWS V14.01,2013-07-02 21:10:00,
2013-07-02 16:16:00,79.6,59.3,29.94,NE,54,0.0,4.0,50,0.00,,SKC,0.00,VWS V14.01,2013-07-02 21:16:00,
2013-07-02 16:21:00,79.5,59.8,29.94,NE,54,0.0,4.0,51,0.00,,SKC,0.00,VWS V14.01,2013-07-02 21:21:00,
2013-07-02 16:26:00,79.5,58.7,29.94,NE,54,0.0,4.0,49,0.00,,SKC,0.00,VWS V14.01,2013-07-02 21:26:00,
2013-07-02 16:30:00,81.3,59.8,29.95,NE,55,1.0,4.0,48,0.00,,SKC,0.00,VWS V14.01,2013-07-02 21:30:00,
2013-07-02 16:31:00,79.3,56.8,29.94,NE,54,0.0,0.0,46,0.00,,SKC,0.00,VWS V14.01,2013-07-02 21:31:00,
2013-07-02 16:36:00,79.2,59.5,29.94,NE,54,1.0,2.0,51,0.00,,SKC,0.00,VWS V14.01,2013-07-02 21:36:00,
2013-07-02 16:41:00,79.2,60.1,29.94,NE,54,0.0,2.0,52,0.00,,SKC,0.00,VWS V14.01,2013-07-02 21:41:00,
2013-07-02 16:46:00,79.1,60.0,29.93,NE,54,0.0,4.0,52,0.00,,SKC,0.00,VWS V14.01,2013-07-02 21:46:00,
2013-07-02 16:51:00,78.9,59.2,29.93,NE,54,0.0,4.0,51,0.00,,SKC,0.00,VWS V14.01,2013-07-02 21:51:00,
2013-07-02 16:56:00,78.9,59.8,29.93,NE,54,0.0,4.0,52,0.00,,SKC,0.00,VWS V14.01,2013-07-02 21:56:00,
2013-07-02 17:00:00,79.8,57.2,29.94,NE,54,0.0,8.0,46,0.00,,SKC,0.00,VWS V14.01,2013-07-02 22:00:00,
2013-07-02 17:01:00,78.8,59.2,29.93,NE,54,0.0,0.0,51,0.00,,SKC,0.00,VWS V14.01,2013-07-02 22:01:00,
2013-07-02 17:06:00,78.8,59.2,29.93,NE,54,0.0,1.0,51,0.00,,SKC,0.00,VWS V14.01,2013-07-02 22:06:00,
2013-07-02 17:11:00,78.8,59.2,29.93,NE,55,0.0,4.0,51,0.00,,SKC,0.00,VWS V14.01,2013-07-02 22:11:00,
2013-07-02 17:16:00,78.9,58.1,29.93,NE,55,2.0,4.0,49,0.00,,SKC,0.00,VWS V14.01,2013-07-02 22:16:00,
2013-07-02 17:21:00,79.0,57.7,29.93,NE,55,1.0,4.0,48,0.00,,SKC,0.00,VWS V14.01,2013-07-02 22:21:00,
2013-07-02 17:26:00,79.0,57.7,29.93,NE,55,1.0,4.0,48,0.00,,SKC,0.00,VWS V14.01,2013-07-02 22:26:00,
2013-07-02 17:30:00,79.3,56.8,29.94,NE,54,0.0,5.0,46,0.00,,SKC,0.00,VWS V14.01,2013-07-02 22:30:00,
2013-07-02 17:31:00,79.1,58.9,29.93,NE,55,0.0,0.0,50,0.00,,SKC,0.00,VWS V14.01,2013-07-02 22:31:00,
2013-07-02 17:36:00,79.1,60.0,29.93,NE,55,1.0,2.0,52,0.00,,SKC,0.00,VWS V14.01,2013-07-02 22:36:00,
2013-07-02 17:41:00,79.0,59.9,29.92,NE,55,0.0,3.0,52,0.00,,SKC,0.00,VWS V14.01,2013-07-02 22:41:00,
2013-07-02 17:46:00,78.8,59.7,29.92,NE,55,0.0,3.0,52,0.00,,SKC,0.00,VWS V14.01,2013-07-02 22:46:00,
2013-07-02 17:51:00,78.7,59.1,29.92,NE,55,0.0,3.0,51,0.00,,SKC,0.00,VWS V14.01,2013-07-02 22:51:00,
2013-07-02 17:56:00,78.7,57.4,29.92,NE,55,0.0,3.0,48,0.00,,SKC,0.00,VWS V14.01,2013-07-02 22:56:00,
2013-07-02 18:00:00,78.8,59.7,29.93,NE,54,0.0,4.0,52,0.00,,SKC,0.00,VWS V14.01,2013-07-02 23:00:00,
2013-07-02 18:01:00,78.7,58.0,29.92,NE,55,0.0,0.0,49,0.00,,SKC,0.00,VWS V14.01,2013-07-02 23:01:00,
2013-07-02 18:06:00,78.7,58.5,29.92,NE,55,5.0,6.0,50,0.00,,SKC,0.00,VWS V14.01,2013-07-02 23:06:00,
2013-07-02 18:11:00,78.7,59.1,29.92,ENE,58,3.0,6.0,51,0.00,,SKC,0.00,VWS V14.01,2013-07-02 23:11:00,
2013-07-02 18:16:00,78.7,58.0,29.92,ENE,58,1.0,6.0,49,0.00,,SKC,0.00,VWS V14.01,2013-07-02 23:16:00,
2013-07-02 18:22:00,78.7,59.1,29.91,ENE,57,2.0,6.0,51,0.00,,SKC,0.00,VWS V14.01,2013-07-02 23:22:00,
2013-07-02 18:27:00,78.6,60.6,29.92,ENE,57,0.0,6.0,54,0.00,,SKC,0.00,VWS V14.01,2013-07-02 23:27:00,
2013-07-02 18:30:00,78.7,61.2,29.91,ENE,57,0.0,6.0,55,0.00,,SKC,0.00,VWS V14.01,2013-07-02 23:30:00,
2013-07-02 18:36:00,78.7,60.2,29.91,ENE,57,2.0,5.0,53,0.00,,SKC,0.00,VWS V14.01,2013-07-02 23:36:00,
2013-07-02 18:41:00,78.4,58.8,29.91,ENE,58,0.0,6.0,51,0.00,,SKC,0.00,VWS V14.01,2013-07-02 23:41:00,
2013-07-02 18:46:00,78.7,59.6,29.92,ENE,58,0.0,6.0,52,0.00,,SKC,0.00,VWS V14.01,2013-07-02 23:46:00,
2013-07-02 18:51:00,78.7,59.1,29.92,NE,56,1.0,6.0,51,0.00,,SKC,0.00,VWS V14.01,2013-07-02 23:51:00,
2013-07-02 18:54:00,78.7,59.1,29.92,NE,44,1.0,7.0,51,0.00,,SKC,0.00,VWS V14.01,2013-07-02 23:54:00,
2013-07-02 18:59:00,78.6,59.5,29.92,NE,44,1.0,7.0,52,0.00,,SKC,0.00,VWS V14.01,2013-07-02 23:59:00,
2013-07-02 19:00:00,78.7,58.5,29.92,NE,55,0.0,3.0,50,0.00,,SKC,0.00,VWS V14.01,2013-07-03 00:00:00,
2013-07-02 19:02:00,78.3,58.7,29.91,NE,44,1.0,3.0,51,0.00,,SKC,0.00,VWS V14.01,2013-07-03 00:02:00,
2013-07-02 19:07:00,78.0,58.4,29.91,NE,44,0.0,3.0,51,0.00,,SKC,0.00,VWS V14.01,2013-07-03 00:07:00,
2013-07-02 19:12:00,77.8,59.3,29.91,NE,45,0.0,3.0,53,0.00,,SKC,0.00,VWS V14.01,2013-07-03 00:12:00,
2013-07-02 19:17:00,77.5,57.4,29.91,NE,45,0.0,3.0,50,0.00,,SKC,0.00,VWS V14.01,2013-07-03 00:17:00,
2013-07-02 19:22:00,77.4,58.4,29.91,NE,45,0.0,4.0,52,0.00,,SKC,0.00,VWS V14.01,2013-07-03 00:22:00,
2013-07-02 19:27:00,77.3,59.4,29.91,NE,45,0.0,4.0,54,0.00,,SKC,0.00,VWS V14.01,2013-07-03 00:27:00,
2013-07-02 19:30:00,78.7,61.2,29.91,ENE,57,0.0,6.0,55,0.00,,SKC,0.00,VWS V14.01,2013-07-03 00:30:00,
2013-07-02 19:31:00,77.1,59.2,29.91,NE,45,0.0,0.0,54,0.00,,SKC,0.00,VWS V14.01,2013-07-03 00:31:00,
2013-07-02 19:35:00,77.0,59.6,29.91,NE,45,0.0,1.0,55,0.00,,SKC,0.00,VWS V14.01,2013-07-03 00:35:00,
2013-07-02 19:40:00,76.8,58.9,29.91,NE,45,0.0,1.0,54,0.00,,SKC,0.00,VWS V14.01,2013-07-03 00:40:00,
2013-07-02 19:45:00,76.6,59.2,29.91,NE,45,0.0,1.0,55,0.00,,SKC,0.00,VWS V14.01,2013-07-03 00:45:00,
2013-07-02 19:50:00,76.5,58.1,29.91,NE,45,0.0,1.0,53,0.00,,SKC,0.00,VWS V14.01,2013-07-03 00:50:00,
2013-07-02 19:55:00,76.4,59.6,29.91,NE,45,0.0,1.0,56,0.00,,SKC,0.00,VWS V14.01,2013-07-03 00:55:00,
2013-07-02 20:00:00,76.3,58.5,29.91,NE,45,1.0,4.0,54,0.00,,SKC,0.00,VWS V14.01,2013-07-03 01:00:00,
2013-07-02 20:04:00,76.3,60.0,29.90,NE,45,0.0,1.0,57,0.00,,SKC,0.00,VWS V14.01,2013-07-03 01:04:00,
2013-07-02 20:07:00,76.2,59.4,29.91,NE,45,0.0,1.0,56,0.00,,SKC,0.00,VWS V14.01,2013-07-03 01:07:00,
2013-07-02 20:12:00,76.0,59.2,29.90,NE,45,0.0,1.0,56,0.00,,SKC,0.00,VWS V14.01,2013-07-03 01:12:00,
2013-07-02 20:14:00,75.9,59.1,29.91,NE,45,0.0,1.0,56,0.00,,SKC,0.00,VWS V14.01,2013-07-03 01:14:00,
2013-07-02 20:19:00,75.7,58.9,29.91,NE,45,0.0,1.0,56,0.00,,SKC,0.00,VWS V14.01,2013-07-03 01:19:00,
2013-07-02 20:24:00,75.4,58.6,29.90,NE,45,0.0,1.0,56,0.00,,SKC,0.00,VWS V14.01,2013-07-03 01:24:00,
2013-07-02 20:29:00,75.2,57.9,29.91,NE,45,0.0,1.0,55,0.00,,SKC,0.00,VWS V14.01,2013-07-03 01:29:00,
2013-07-02 20:30:00,77.1,59.2,29.91,NE,45,0.0,4.0,54,0.00,,SKC,0.00,VWS V14.01,2013-07-03 01:30:00,
2013-07-02 20:32:00,75.1,58.8,29.91,NE,45,0.0,0.0,57,0.00,,SKC,0.00,VWS V14.01,2013-07-03 01:32:00,
2013-07-02 20:37:00,74.9,58.2,29.91,NE,45,0.0,1.0,56,0.00,,SKC,0.00,VWS V14.01,2013-07-03 01:37:00,
2013-07-02 20:42:00,74.6,58.9,29.91,NE,45,0.0,1.0,58,0.00,,SKC,0.00,VWS V14.01,2013-07-03 01:42:00,
2013-07-02 20:50:00,74.2,58.0,29.91,NE,45,0.0,1.0,57,0.00,,SKC,0.00,VWS V14.01,2013-07-03 01:50:00,
2013-07-02 20:56:00,74.0,58.8,29.91,NE,45,0.0,1.0,59,0.00,,SKC,0.00,VWS V14.01,2013-07-03 01:56:00,
2013-07-02 21:00:00,76.3,59.0,29.91,NE,45,0.0,4.0,55,0.00,,SKC,0.00,VWS V14.01,2013-07-03 02:00:00,
2013-07-02 21:01:00,73.8,59.5,29.90,NE,45,0.0,0.0,61,0.00,,SKC,0.00,VWS V14.01,2013-07-03 02:01:00,
2013-07-02 21:06:00,73.6,59.3,29.91,NE,45,0.0,1.0,61,0.00,,SKC,0.00,VWS V14.01,2013-07-03 02:06:00,
2013-07-02 21:13:00,73.1,59.3,29.91,NE,45,0.0,1.0,62,0.00,,SKC,0.00,VWS V14.01,2013-07-03 02:13:00,
2013-07-02 21:19:00,72.8,59.0,29.91,NE,45,0.0,1.0,62,0.00,,SKC,0.00,VWS V14.01,2013-07-03 02:19:00,
2013-07-02 21:24:00,72.6,59.3,29.91,NE,45,0.0,1.0,63,0.00,,SKC,0.00,VWS V14.01,2013-07-03 02:24:00,
2013-07-02 21:29:00,72.2,58.5,29.91,NE,45,0.0,1.0,62,0.00,,SKC,0.00,VWS V14.01,2013-07-03 02:29:00,
2013-07-02 21:30:00,75.1,57.8,29.91,NE,45,0.0,1.0,55,0.00,,SKC,0.00,VWS V14.01,2013-07-03 02:30:00,
2013-07-02 21:35:00,72.0,59.2,29.91,NE,45,0.0,0.0,64,0.00,,SKC,0.00,VWS V14.01,2013-07-03 02:35:00,
2013-07-02 21:36:00,72.0,59.2,29.91,NE,45,0.0,0.0,64,0.00,,SKC,0.00,VWS V14.01,2013-07-03 02:36:00,
2013-07-02 21:42:00,71.8,59.0,29.91,NE,45,0.0,0.0,64,0.00,,SKC,0.00,VWS V14.01,2013-07-03 02:42:00,
2013-07-02 21:48:00,71.6,59.2,29.91,NE,45,0.0,0.0,65,0.00,,SKC,0.00,VWS V14.01,2013-07-03 02:48:00,
2013-07-02 21:51:00,71.5,60.0,29.91,NE,45,0.0,0.0,67,0.00,,SKC,0.00,VWS V14.01,2013-07-03 02:51:00,
2013-07-02 21:58:00,71.3,59.8,29.91,NE,45,0.0,0.0,67,0.00,,SKC,0.00,VWS V14.01,2013-07-03 02:58:00,
2013-07-02 22:00:00,73.8,59.5,29.91,NE,45,0.0,1.0,61,0.00,,SKC,0.00,VWS V14.01,2013-07-03 03:00:00,
2013-07-02 22:03:00,71.0,60.3,29.91,NE,45,0.0,0.0,69,0.00,,SKC,0.00,VWS V14.01,2013-07-03 03:03:00,
2013-07-02 22:09:00,70.6,58.3,29.91,NE,45,0.0,0.0,65,0.00,,SKC,0.00,VWS V14.01,2013-07-03 03:09:00,
2013-07-02 22:14:00,70.5,57.8,29.91,NE,45,0.0,0.0,64,0.00,,SKC,0.00,VWS V14.01,2013-07-03 03:14:00,
2013-07-02 22:22:00,69.3,58.7,29.91,NE,45,0.0,0.0,69,0.00,,SKC,0.00,VWS V14.01,2013-07-03 03:22:00,
2013-07-02 22:27:00,68.1,58.3,29.92,NE,45,0.0,0.0,71,0.00,,SKC,0.00,VWS V14.01,2013-07-03 03:27:00,
2013-07-02 22:29:00,67.7,58.0,29.92,NE,45,0.0,0.0,71,0.00,,SKC,0.00,VWS V14.01,2013-07-03 03:29:00,
2013-07-02 22:30:00,72.2,59.4,29.91,NE,45,0.0,1.0,64,0.00,,SKC,0.00,VWS V14.01,2013-07-03 03:30:00,
2013-07-02 22:34:00,66.7,57.8,29.92,NE,45,0.0,0.0,73,0.00,,SKC,0.00,VWS V14.01,2013-07-03 03:34:00,
2013-07-02 22:41:00,66.1,56.0,29.92,NE,45,0.0,0.0,70,0.00,,SKC,0.00,VWS V14.01,2013-07-03 03:41:00,
2013-07-02 22:42:00,66.0,56.0,29.92,NE,45,0.0,0.0,70,0.00,,SKC,0.00,VWS V14.01,2013-07-03 03:42:00,
2013-07-02 22:44:00,65.9,55.5,29.92,NE,45,0.0,0.0,69,0.00,,SKC,0.00,VWS V14.01,2013-07-03 03:44:00,
2013-07-02 22:49:00,65.8,55.0,29.92,NE,45,0.0,0.0,68,0.00,,SKC,0.00,VWS V14.01,2013-07-03 03:49:00,
2013-07-02 22:54:00,65.8,55.0,29.92,NE,45,0.0,0.0,68,0.00,,SKC,0.00,VWS V14.01,2013-07-03 03:54:00,
2013-07-02 23:00:00,65.8,55.0,29.92,NE,45,0.0,0.0,68,0.00,,SKC,0.00,VWS V14.01,2013-07-03 04:00:00,
2013-07-02 23:01:00,65.8,55.0,29.92,NE,45,0.0,0.0,68,0.00,,SKC,0.00,VWS V14.01,2013-07-03 04:01:00,
2013-07-02 23:02:00,65.8,55.0,29.91,NE,45,0.0,0.0,68,0.00,,SKC,0.00,VWS V14.01,2013-07-03 04:02:00,
2013-07-02 23:04:00,65.7,54.9,29.92,NE,45,0.0,0.0,68,0.00,,SKC,0.00,VWS V14.01,2013-07-03 04:04:00,
2013-07-02 23:05:00,65.7,55.3,29.92,NE,45,0.0,0.0,69,0.00,,SKC,0.00,VWS V14.01,2013-07-03 04:05:00,
2013-07-02 23:09:00,65.6,55.2,29.92,NE,45,0.0,0.0,69,0.00,,SKC,0.00,VWS V14.01,2013-07-03 04:09:00,
2013-07-02 23:13:00,65.6,55.2,29.92,NE,45,0.0,0.0,69,0.00,,SKC,0.00,VWS V14.01,2013-07-03 04:13:00,
2013-07-02 23:18:00,65.7,55.3,29.92,NE,45,0.0,0.0,69,0.00,,SKC,0.00,VWS V14.01,2013-07-03 04:18:00,
2013-07-02 23:19:00,65.7,55.7,29.92,NE,45,0.0,0.0,70,0.00,,SKC,0.00,VWS V14.01,2013-07-03 04:19:00,
2013-07-02 23:24:00,65.4,56.5,29.92,NE,45,0.0,0.0,73,0.00,,SKC,0.00,VWS V14.01,2013-07-03 04:24:00,
2013-07-02 23:29:00,65.2,56.3,29.92,NE,45,0.0,0.0,73,0.00,,SKC,0.00,VWS V14.01,2013-07-03 04:29:00,
2013-07-02 23:30:00,67.5,58.2,29.92,NE,45,0.0,0.0,72,0.00,,SKC,0.00,VWS V14.01,2013-07-03 04:30:00,
2013-07-02 23:32:00,65.0,55.8,29.92,NE,45,0.0,0.0,72,0.00,,SKC,0.00,VWS V14.01,2013-07-03 04:32:00,
2013-07-02 23:36:00,64.8,55.6,29.92,NE,45,0.0,0.0,72,0.00,,SKC,0.00,VWS V14.01,2013-07-03 04:36:00,
2013-07-02 23:41:00,64.8,55.2,29.91,NE,45,0.0,0.0,71,0.00,,SKC,0.00,VWS V14.01,2013-07-03 04:41:00,
2013-07-02 23:45:00,64.7,55.1,29.91,NE,45,0.0,0.0,71,0.00,,SKC,0.00,VWS V14.01,2013-07-03 04:45:00,
2013-07-02 23:50:00,64.7,54.7,29.91,NE,45,0.0,0.0,70,0.00,,SKC,0.00,VWS V14.01,2013-07-03 04:50:00,
2013-07-02 23:55:00,64.6,54.2,29.92,NE,45,0.0,0.0,69,0.00,,SKC,0.00,VWS V14.01,2013-07-03 04:55:00,
2013-07-02 23:57:00,64.6,54.6,29.91,NE,45,0.0,0.0,70,0.00,,SKC,0.00,VWS V14.01,2013-07-03 04:57:00,